DECAYED

STARLINK-30173, 57439 (Decayed)

Orbit data source: Space-Track

STARLINK-30173, 57439 was a payload satellite owned by SpaceX/Seattle (US) in LEO that was launched on Mon, 24 Jul 2023 UTC via an FALCON 9 launch vehicle from the Air Force Eastern Test Range (AFETR). Payload-class satellites include a variety of spacecraft equipped with specific instruments for various scientific and technological missions. These include communications satellites like Starlink; space stations such as the ISS; scientific satellites like the Hubble; Earth observation satellites from companies like Planet Labs, Umbra, and HawkEye 360; GPS; miniature CubeSats for education and research; and military/defense satellites.

Not visible in the next 10 days
Identifier
57439, 2023-105K
Orbit
Decayed
Country
Flag of USUS
Related business
Manufacturer
SpaceX/Seattle
Mission
Decayed Commercial Communications
Bus & Motor
STARLINK V2M, Unknown motor
Mass
730 kg wet, ~700 kg dry
Launch date (UTC)
2023-07-24 (3 years ago)
Launch vehicle
FALCON 9
Launch site
Air Force Eastern Test Range (AFETR)
Object type
Payload
Rocket body
Debris
Shape & HBR
Box + 2 Pan, 17.7 m
Radar Cross Section
33.884 m², Large (>1 m²)

Expand to show TLE details & history
Last TLE update: 1 year ago

TLE from 1 year ago
0 STARLINK-30173
1 57439U 23105K   25161.55488226  .27074672  92371-5  45908-2 0  9994
2 57439  42.9635 245.0349 0007848   1.5675 130.2128 16.32028811105260
Epoch: 2025-06-10T13:19Z
TLE epoch observation values (Epoch: 2025-06-10T13:19:01.827Z)
Latitude
30.62943°
Longitude
-73.0783°
Altitude
191.048 km
Speed
7.795 km/s
True Right ascension
01h 43m 19s
True Declination
30° 27' 57"
Sunlit
Object was in daylight at epoch
Visualization orbit readout
Latitude
Unknown
Longitude
Unknown
Altitude
Unknown
Speed
Unknown
Apparent Right ascension
Unknown
Apparent Declination
Unknown
Sunlit
N/A
Visualization observer readout
Local Sidereal Time
21:28:06
Azimuth
Unknown
Elevation
Unknown
Doppler factor
Unknown
Orbital elements
Apogee altitude
194.286 km
Perigee altitude
183.978 km
Semi-major axis
6,567.269 km
Eccentricity
0.00078
Inclination
42.9635°
RAAN
245.0349°
Arg. of periapsis
1.5675°
True anomaly
130.28143°
Mean anomaly
130.2128°
Eccentric anomaly
130.24712°
Mean motion
4.07818 °/min
Orbital period
88.27 mins
BSTAR
0.0045908
Loading maneuver chart data...
Computing Atmospheric mass density...
Loading historical data...
Loading historical data...
Loading historical data...
Loading historical data...
Loading historical data...
Loading historical data...
Loading historical data...

Documentation

Showing up to 5 results
|